EW2964 Weather Reports


Display with metric or nautical units.
time (UTC)temp
F
wind
direction
speed
MPH
gust
MPH
rain 1hr
in
rain 24hr
in
rain mn
in
humidity
%
barometer
mb
20260831144524 72 129 0.0 2.0 0.00 0.00 0.00 89 1024.1
20260831144403 72 129 1.0 2.0 0.00 0.00 0.00 88 1023.3
20260831143902 72 129 1.0 2.0 0.00 0.00 0.00 88 1023.3
20260831143027 71 129 1.0 3.0 0.00 0.00 0.00 90 1024.0
20260831142903 72 79 1.0 3.0 0.00 0.00 0.00 88 1023.3
20260831142402 71 61 1.0 2.0 0.00 0.00 0.00 89 1023.1
20260831141904 71 61 1.0 2.0 0.00 0.00 0.00 89 1023.1
20260831141510 70 61 1.0 3.0 0.00 0.00 0.00 91 1023.8
20260831141403 70 61 2.0 3.0 0.00 0.00 0.00 90 1022.9
20260831140902 70 61 2.0 3.0 0.00 0.00 0.00 91 1022.9
20260831140403 70 126 1.0 3.0 0.00 0.00 0.00 91 1022.9
20260831140030 69 126 1.0 3.0 0.00 0.00 0.00 93 1023.7
20260831135902 69 126 2.0 3.0 0.00 0.00 0.00 91 1023.0
20260831135402 69 63 1.0 3.0 0.00 0.00 0.00 92 1023.1
20260831134903 69 61 0.0 3.0 0.00 0.00 0.00 92 1023.1
20260831134519 68 138 0.0 3.0 0.00 0.00 0.00 94 1023.9
20260831134402 69 138 1.0 3.0 0.00 0.00 0.00 92 1023.1
20260831133903 68 84 0.0 0.0 0.00 0.00 0.00 93 1023.2
20260831133403 68 303 0.0 0.0 0.00 0.00 0.00 93 1023.1
20260831133003 67 303 0.0 0.0 0.00 0.00 0.00 95 1023.8
20260831131903 67 303 0.0 0.0 0.00 0.00 0.00 94 1023.0
20260831131507 67 303 0.0 0.0 0.00 0.00 0.00 98 1023.8
20260831131403 67 303 0.0 0.0 0.00 0.00 0.00 96 1023.0
20260831130403 66 303 0.0 1.0 0.00 0.00 0.00 96 1023.2
20260831130010 65 304 0.0 1.0 0.00 0.00 0.00 98 1023.8
20260831125902 66 303 0.0 1.0 0.00 0.00 0.00 100 1023.2
20260831125403 66 303 0.0 1.0 0.00 0.00 0.00 100 1023.2
20260831124903 65 303 0.0 1.0 0.00 0.00 0.00 100 1023.0
20260831124516 64 303 0.0 1.0 0.00 0.00 0.00 98 1023.8
20260831124403 65 303 0.0 1.0 0.00 0.00 0.00 100 1023.1
20260831123026 63 303 0.0 1.0 0.00 0.00 0.00 98 1023.8
20260831122904 64 303 0.0 0.0 0.00 0.00 0.00 100 1023.0
20260831121503 63 303 0.0 2.0 0.00 0.00 0.00 98 1023.7
20260831121403 63 303 0.0 2.0 0.00 0.00 0.00 100 1023.0
20260831120903 63 303 1.0 2.0 0.00 0.00 0.00 100 1022.9
20260831120403 63 303 1.0 2.0 0.00 0.00 0.00 100 1022.9
20260831120017 62 303 0.0 1.0 0.00 0.00 0.00 98 1023.6
20260831115903 63 303 0.0 1.0 0.00 0.00 0.00 100 1022.8
20260831114903 62 303 0.0 1.0 0.00 0.00 0.00 100 1022.8
20260831114516 62 303 0.0 2.0 0.00 0.00 0.00 98 1023.6
20260831114403 62 303 1.0 2.0 0.00 0.00 0.00 100 1022.8
20260831113903 62 303 1.0 2.0 0.00 0.00 0.00 100 1022.8
20260831113402 62 303 0.0 2.0 0.00 0.00 0.00 100 1022.7
20260831113023 61 303 0.0 0.0 0.00 0.00 0.00 98 1023.5
20260831112903 62 303 0.0 0.0 0.00 0.00 0.00 100 1022.7
20260831112403 62 303 0.0 0.0 0.00 0.00 0.00 100 1022.6
20260831111903 62 303 0.0 0.0 0.00 0.00 0.00 100 1022.5
20260831111530 61 303 0.0 2.0 0.00 0.01 0.00 98 1023.3
20260831110903 62 303 1.0 2.0 0.00 0.01 0.00 96 1022.4
20260831110403 62 303 2.0 3.0 0.00 0.01 0.00 100 1022.4
20260831110006 61 273 1.0 2.0 0.00 0.01 0.00 98 1023.1
20260831105903 62 273 1.0 2.0 0.00 0.01 0.00 96 1022.4
20260831105403 62 273 1.0 2.0 0.00 0.01 0.00 96 1022.3
20260831104902 62 273 0.0 2.0 0.00 0.01 0.00 96 1022.3
20260831104517 61 273 0.0 2.0 0.00 0.01 0.00 98 1023.1
20260831104402 62 273 1.0 2.0 0.00 0.01 0.00 100 1022.3
20260831103902 62 273 0.0 0.0 0.00 0.01 0.00 96 1022.2
20260831103018 61 273 0.0 2.0 0.00 0.01 0.00 98 1022.9
20260831102903 62 273 1.0 2.0 0.00 0.01 0.00 96 1022.2
20260831102403 62 273 1.0 2.0 0.00 0.01 0.00 100 1022.2
20260831101903 62 273 0.0 2.0 0.00 0.01 0.00 100 1022.1
20260831101526 61 273 1.0 2.0 0.00 0.01 0.00 98 1022.9
20260831101403 62 273 1.0 2.0 0.00 0.01 0.00 100 1022.2
20260831100903 62 273 1.0 2.0 0.00 0.01 0.00 100 1022.2
20260831100402 62 273 1.0 2.0 0.00 0.01 0.00 96 1022.2
20260831100034 61 273 0.0 2.0 0.00 0.01 0.00 98 1023.0
20260831094902 62 273 1.0 2.0 0.00 0.01 0.00 96 1022.1
20260831094512 62 273 0.0 2.0 0.00 0.01 0.00 98 1022.8
20260831094403 62 273 1.0 2.0 0.00 0.01 0.00 96 1022.0
20260831093902 62 273 1.0 2.0 0.00 0.01 0.00 96 1022.0
20260831093019 62 306 0.0 3.0 0.00 0.01 0.00 98 1022.8
20260831092903 62 306 1.0 3.0 0.00 0.01 0.00 96 1022.1
20260831092403 62 306 0.0 2.0 0.00 0.01 0.00 96 1022.1
20260831091524 62 306 0.0 2.0 0.00 0.01 0.00 98 1022.9
20260831091403 62 306 0.0 2.0 0.00 0.01 0.00 96 1022.2
20260831090903 62 306 1.0 2.0 0.00 0.01 0.00 96 1022.1
20260831090403 62 306 2.0 3.0 0.00 0.01 0.00 96 1022.1
20260831090030 62 266 1.0 2.0 0.00 0.01 0.00 98 1022.8
20260831085903 62 266 1.0 2.0 0.00 0.01 0.00 96 1022.0
20260831084903 63 266 0.0 2.0 0.00 0.01 0.00 96 1022.0
20260831084531 62 266 0.0 2.0 0.00 0.01 0.00 98 1022.6
20260831084403 63 266 1.0 2.0 0.00 0.01 0.00 96 1021.9
20260831083903 63 266 0.0 1.0 0.00 0.01 0.00 96 1022.0
20260831083403 63 266 1.0 3.0 0.00 0.01 0.00 96 1022.0
20260831083011 62 266 1.0 3.0 0.00 0.01 0.00 98 1022.7
20260831082903 63 258 2.0 3.0 0.00 0.01 0.00 96 1021.9
20260831082403 63 264 0.0 0.0 0.00 0.01 0.00 96 1021.9
20260831081903 63 258 0.0 0.0 0.00 0.01 0.00 96 1021.9
20260831081522 63 258 0.0 1.0 0.00 0.01 0.00 98 1022.6
20260831081403 63 258 0.0 0.0 0.00 0.01 0.00 96 1021.9
20260831080903 63 258 0.0 1.0 0.00 0.01 0.00 96 1021.8
20260831080403 63 258 0.0 1.0 0.00 0.01 0.00 96 1021.8
20260831080004 63 258 0.0 2.0 0.00 0.01 0.00 97 1022.5
20260831075903 63 258 0.0 1.0 0.00 0.01 0.00 96 1021.7
20260831075404 63 258 1.0 2.0 0.00 0.01 0.00 96 1021.7
20260831074902 63 291 1.0 3.0 0.00 0.01 0.00 96 1021.6
20260831074503 63 295 1.0 3.0 0.00 0.01 0.00 97 1022.4
20260831074403 64 298 1.0 3.0 0.00 0.01 0.00 96 1021.6
20260831073903 64 292 1.0 2.0 0.00 0.01 0.00 96 1021.5
20260831073403 64 267 1.0 2.0 0.00 0.01 0.00 96 1021.5
20260831073010 63 267 1.0 3.0 0.00 0.01 0.00 98 1022.3
20260831072903 64 267 1.0 3.0 0.00 0.01 0.00 96 1021.5
20260831071903 64 300 1.0 3.0 0.00 0.01 0.00 96 1021.5
20260831071515 64 300 1.0 3.0 0.00 0.01 0.00 97 1022.3
20260831071403 64 300 1.0 3.0 0.00 0.01 0.00 96 1021.6
20260831070903 64 277 1.0 3.0 0.00 0.01 0.00 96 1021.6
20260831070403 64 277 1.0 3.0 0.00 0.01 0.00 96 1021.7
20260831070023 64 277 2.0 3.0 0.00 0.01 0.00 97 1022.5
20260831065903 64 284 2.0 3.0 0.00 0.01 0.00 96 1021.6
20260831064903 65 311 1.0 2.0 0.00 0.01 0.00 95 1021.7
20260831064504 64 310 0.0 1.0 0.00 0.01 0.00 97 1022.4
20260831064403 65 311 1.0 1.0 0.00 0.01 0.00 95 1021.7
20260831063902 65 311 1.0 1.0 0.00 0.01 0.00 96 1021.8
20260831063403 65 311 1.0 2.0 0.00 0.01 0.00 96 1021.8
20260831063009 65 311 0.0 2.0 0.00 0.01 0.00 97 1022.6
20260831062902 65 311 1.0 2.0 0.00 0.01 0.00 95 1021.8
20260831061903 65 311 1.0 2.0 0.00 0.01 0.00 95 1021.8
20260831061514 65 311 1.0 2.0 0.00 0.01 0.00 97 1022.6
20260831061403 65 311 1.0 2.0 0.00 0.01 0.00 95 1021.8
20260831060403 66 311 1.0 2.0 0.00 0.01 0.00 95 1022.0
20260831060018 65 311 0.0 1.0 0.00 0.01 0.00 96 1022.8
20260831055903 66 311 0.0 1.0 0.00 0.01 0.00 95 1022.0
20260831055402 66 311 0.0 1.0 0.00 0.01 0.00 95 1022.1
20260831054523 66 311 0.0 3.0 0.00 0.01 0.00 97 1022.9
20260831054403 66 311 1.0 2.0 0.00 0.01 0.00 95 1022.2
20260831053903 66 311 1.0 3.0 0.00 0.01 0.00 95 1022.2
20260831053402 66 311 1.0 3.0 0.00 0.01 0.00 95 1022.3
20260831053003 66 246 1.0 4.0 0.00 0.01 0.00 96 1023.0
20260831052903 66 248 3.0 5.0 0.00 0.01 0.00 95 1022.4
20260831052402 66 279 1.0 3.0 0.00 0.01 0.00 95 1022.3
20260831051903 67 284 0.0 0.0 0.00 0.01 0.00 95 1022.4
20260831051518 66 284 0.0 1.0 0.00 0.01 0.00 96 1023.1
20260831051403 67 284 0.0 0.0 0.00 0.01 0.00 95 1022.5
20260831050903 67 284 0.0 1.0 0.00 0.01 0.00 95 1022.5
20260831050403 67 284 0.0 1.0 0.00 0.01 0.00 95 1022.4
20260831050015 66 284 0.0 2.0 0.00 0.01 0.00 96 1023.2
20260831045403 67 284 0.0 2.0 0.00 0.01 0.00 94 1022.4
20260831044522 66 284 0.0 0.0 0.00 0.01 0.00 96 1023.1
20260831044403 67 284 0.0 0.0 0.00 0.01 0.00 94 1022.4
20260831043403 67 284 0.0 0.0 0.00 0.01 0.00 94 1022.5
20260831043028 66 284 0.0 2.0 0.00 0.01 0.00 96 1023.2
20260831042903 67 284 0.0 1.0 0.00 0.01 0.00 94 1022.5
20260831042403 67 284 0.0 2.0 0.00 0.01 0.00 94 1022.6
20260831041903 67 284 0.0 1.0 0.00 0.01 0.00 94 1022.6
20260831041508 66 284 0.0 2.0 0.00 0.01 0.00 96 1023.4
20260831040904 67 284 1.0 1.0 0.00 0.01 0.00 94 1022.8
20260831040402 67 284 1.0 2.0 0.00 0.01 0.00 94 1022.8
20260831040012 66 284 0.0 2.0 0.00 0.01 0.00 96 1023.6
20260831035903 67 284 1.0 2.0 0.00 0.01 0.01 94 1022.9
20260831035403 67 284 0.0 0.0 0.00 0.01 0.01 94 1022.7
20260831034519 66 284 0.0 0.0 0.00 0.01 0.01 96 1023.6
20260831034403 67 284 0.0 0.0 0.00 0.01 0.01 94 1022.6
20260831033903 67 284 0.0 0.0 0.00 0.01 0.01 94 1022.6
20260831033403 67 284 0.0 0.0 0.00 0.01 0.01 94 1022.6
20260831033047 66 284 0.0 0.0 0.00 0.01 0.01 95 1023.5
20260831032903 67 284 0.0 0.0 0.00 0.01 0.01 94 1022.6
20260831031903 67 227 0.0 0.0 0.00 0.01 0.01 93 1022.6
20260831031527 67 227 0.0 1.0 0.00 0.01 0.01 95 1023.4
20260831031403 67 227 1.0 1.0 0.00 0.01 0.01 93 1022.6
20260831030903 67 227 1.0 1.0 0.00 0.01 0.01 93 1022.7
20260831030403 67 227 0.0 1.0 0.00 0.01 0.01 93 1022.7
20260831030011 67 227 0.0 0.0 0.00 0.01 0.01 95 1023.5
20260831025903 67 227 0.0 0.0 0.00 0.01 0.01 93 1022.7
20260831025403 67 227 0.0 0.0 0.00 0.01 0.01 93 1022.7
20260831024517 67 227 0.0 3.0 0.00 0.01 0.01 95 1023.5
20260831024403 67 227 0.0 1.0 0.00 0.01 0.01 93 1022.7
20260831023403 67 312 1.0 3.0 0.00 0.01 0.01 94 1022.8
20260831023022 67 312 2.0 4.0 0.00 0.01 0.01 95 1023.5
20260831022903 67 310 2.0 5.0 0.00 0.01 0.01 93 1022.7
20260831021526 67 257 0.0 4.0 0.00 0.01 0.01 94 1023.4
20260831021403 67 257 1.0 2.0 0.00 0.01 0.01 93 1022.7
20260831020903 67 257 3.0 5.0 0.00 0.01 0.01 93 1022.7
20260831020031 66 276 1.0 3.0 0.00 0.01 0.01 95 1023.5
20260831015903 67 287 1.0 3.0 0.00 0.01 0.01 93 1022.8
20260831015403 67 279 2.0 3.0 0.00 0.01 0.01 93 1022.8
20260831014903 67 309 1.0 2.0 0.00 0.01 0.01 93 1022.8
20260831014513 67 309 0.0 2.0 0.00 0.01 0.01 95 1023.5
20260831014403 67 309 0.0 2.0 0.00 0.01 0.01 93 1022.8
20260831013903 67 309 1.0 2.0 0.00 0.01 0.01 93 1022.8
20260831013403 67 309 1.0 3.0 0.00 0.01 0.01 93 1022.9
20260831013019 67 309 1.0 3.0 0.00 0.01 0.01 95 1023.6
20260831012903 67 309 1.0 3.0 0.00 0.01 0.01 93 1022.9
20260831012403 67 317 1.0 2.0 0.00 0.01 0.01 93 1022.8
20260831011903 67 317 1.0 2.0 0.00 0.01 0.01 93 1022.8
20260831011531 67 317 1.0 2.0 0.00 0.01 0.01 94 1023.5
20260831011403 67 317 1.0 2.0 0.00 0.01 0.01 93 1022.8
20260831010903 67 317 1.0 2.0 0.00 0.01 0.01 93 1022.7
20260831010402 67 317 1.0 3.0 0.00 0.01 0.01 93 1022.6
20260831010030 67 294 1.0 4.0 0.00 0.01 0.01 94 1023.4
20260831005903 67 294 2.0 3.0 0.00 0.01 0.01 93 1022.6
20260831005402 67 306 3.0 5.0 0.00 0.01 0.01 92 1022.5
20260831004903 68 309 3.0 5.0 0.00 0.01 0.01 92 1022.4
20260831004534 67 312 2.0 4.0 0.00 0.01 0.01 93 1023.1
20260831004403 68 311 3.0 5.0 0.00 0.01 0.01 92 1022.3
20260831003903 68 309 3.0 6.0 0.00 0.01 0.01 92 1022.3
20260831003403 68 267 2.0 3.0 0.00 0.01 0.01 92 1022.1
20260831003027 68 269 2.0 4.0 0.00 0.01 0.01 93 1022.8
20260831002402 69 320 2.0 5.0 0.00 0.01 0.01 91 1022.0
20260831001903 69 306 3.0 3.0 0.00 0.01 0.01 90 1021.9
20260831001506 69 311 2.0 4.0 0.00 0.01 0.01 92 1022.6
20260831000903 69 310 3.0 5.0 0.00 0.01 0.01 90 1021.6
20260831000403 70 292 2.0 5.0 0.00 0.01 0.01 89 1021.5
20260831000003 69 293 2.0 6.0 0.00 0.01 0.01 91 1022.3
20260830235903 70 272 2.0 6.0 0.00 0.01 0.01 89 1021.5
20260830235403 70 311 3.0 6.0 0.00 0.01 0.01 88 1021.3
20260830234903 70 265 3.0 5.0 0.00 0.01 0.01 88 1021.5
20260830234518 70 300 1.0 6.0 0.00 0.01 0.01 89 1022.3
20260830233403 71 300 4.0 6.0 0.00 0.01 0.01 86 1021.4
20260830233011 71 299 2.0 6.0 0.00 0.01 0.01 87 1022.2
20260830231903 73 287 3.0 5.0 0.00 0.01 0.01 84 1021.4
20260830231519 73 291 1.0 6.0 0.00 0.01 0.01 85 1022.2
20260830231403 73 291 1.0 6.0 0.00 0.01 0.01 83 1021.5
20260830230903 74 284 4.0 6.0 0.00 0.01 0.01 82 1021.4
20260830230403 74 294 2.0 5.0 0.00 0.01 0.01 81 1021.4
20260830230022 74 286 2.0 4.0 0.00 0.01 0.01 81 1022.1
20260830225403 75 282 2.0 3.0 0.00 0.01 0.01 80 1021.4
20260830224903 75 303 3.0 6.0 0.00 0.01 0.01 78 1021.4
20260830224504 75 288 1.0 4.0 0.00 0.01 0.01 79 1022.3
20260830224403 76 293 2.0 5.0 0.00 0.01 0.01 78 1021.6
20260830223904 77 304 2.0 3.0 0.00 0.01 0.01 76 1021.5
20260830223403 77 194 1.0 2.0 0.00 0.01 0.01 74 1021.4
20260830223010 77 182 0.0 3.0 0.00 0.01 0.01 75 1022.2
20260830222903 78 190 1.0 2.0 0.00 0.01 0.01 74 1021.5
20260830222403 78 196 1.0 3.0 0.00 0.01 0.01 72 1021.5
20260830221903 79 196 1.0 3.0 0.00 0.01 0.01 69 1021.4
20260830221521 79 245 1.0 4.0 0.00 0.01 0.01 70 1022.3
20260830221403 79 252 1.0 3.0 0.00 0.01 0.01 68 1021.6
20260830220904 79 314 3.0 5.0 0.00 0.01 0.01 66 1021.8
20260830220403 79 7 2.0 5.0 0.00 0.01 0.01 67 1021.8
20260830220024 78 296 3.0 8.0 0.00 0.01 0.01 68 1022.6
20260830215403 78 290 5.0 8.0 0.00 0.02 0.01 67 1021.8
20260830214903 77 335 5.0 8.0 0.00 0.04 0.01 68 1021.8
20260830214526 77 296 3.0 7.0 0.00 0.08 0.01 70 1022.5
20260830214403 77 308 3.0 6.0 0.00 0.13 0.01 69 1021.7
20260830213903 77 306 5.0 6.0 0.00 0.20 0.01 69 1021.8
20260830213403 77 313 5.0 8.0 0.00 0.22 0.01 68 1021.8
20260830213007 77 308 4.0 10.0 0.00 0.22 0.01 70 1022.6
20260830212903 77 317 7.0 10.0 0.00 0.22 0.01 67 1021.7
20260830212403 77 319 5.0 8.0 0.00 0.23 0.01 69 1021.7
20260830211903 78 330 4.0 6.0 0.00 0.24 0.01 69 1021.6
20260830211510 77 304 2.0 6.0 0.00 0.24 0.01 70 1022.4
20260830211402 78 317 5.0 7.0 0.00 0.24 0.01 68 1021.6
20260830210403 78 306 6.0 9.0 0.00 0.24 0.01 69 1021.4
20260830210016 77 304 4.0 8.0 0.00 0.24 0.01 70 1022.1
20260830205403 78 286 3.0 6.0 0.00 0.24 0.01 71 1021.3
20260830204903 78 293 3.0 7.0 0.00 0.24 0.01 73 1021.3
20260830204527 77 314 4.0 7.0 0.00 0.24 0.01 73 1022.1
20260830204403 78 306 5.0 7.0 0.00 0.24 0.01 71 1021.2
20260830203903 78 311 5.0 7.0 0.00 0.24 0.01 70 1021.1
20260830203403 78 298 7.0 12.0 0.00 0.24 0.01 69 1021.3
20260830203027 78 289 8.0 16.0 0.00 0.24 0.01 70 1021.9
20260830202903 79 318 9.0 14.0 0.00 0.24 0.01 68 1021.3
20260830202403 80 302 10.0 16.0 0.00 0.24 0.01 67 1021.5
20260830201903 81 308 7.0 20.0 0.00 0.24 0.01 68 1021.5
20260830201510 81 291 13.0 21.0 0.00 0.24 0.01 66 1022.0
20260830201403 82 295 12.0 22.0 0.00 0.24 0.01 64 1021.4
20260830200903 83 313 9.0 13.0 0.00 0.24 0.01 59 1021.3
20260830200403 84 320 5.0 12.0 0.00 0.24 0.01 57 1021.5
20260830200014 83 352 4.0 10.0 0.00 0.24 0.01 60 1022.0
20260830195903 84 338 6.0 10.0 0.00 0.24 0.01 62 1021.4
20260830195403 84 89 3.0 7.0 0.00 0.24 0.01 57 1021.4
20260830194517 84 211 2.0 7.0 0.00 0.24 0.01 58 1022.2
20260830194403 85 233 3.0 6.0 0.00 0.24 0.01 55 1021.4
20260830193903 85 284 3.0 7.0 0.00 0.24 0.01 54 1021.5
20260830193403 84 231 3.0 8.0 0.00 0.24 0.01 58 1021.7
20260830193029 83 238 2.0 7.0 0.00 0.24 0.01 56 1022.4
20260830192402 84 268 3.0 7.0 0.00 0.24 0.01 56 1021.9
20260830191903 84 313 2.0 6.0 0.00 0.24 0.01 60 1021.9
20260830191538 83 17 1.0 9.0 0.00 0.24 0.01 60 1022.7
20260830190903 83 327 6.0 9.0 0.00 0.24 0.01 59 1022.0
20260830190015 82 334 2.0 8.0 0.00 0.24 0.01 63 1022.8
20260830185403 82 261 5.0 8.0 0.00 0.24 0.01 60 1022.2
20260830184903 82 243 4.0 7.0 0.00 0.24 0.01 62 1022.3
20260830184518 81 233 3.0 10.0 0.00 0.24 0.01 65 1023.3
20260830184403 81 246 2.0 5.0 0.00 0.24 0.01 66 1022.4
20260830183903 81 271 5.0 10.0 0.00 0.24 0.01 63 1022.4
20260830183402 81 328 7.0 12.0 0.00 0.24 0.01 61 1022.4
20260830183003 81 310 4.0 12.0 0.00 0.24 0.01 65 1023.4
20260830182403 82 297 5.0 9.0 0.00 0.24 0.01 61 1022.3
20260830181903 82 311 7.0 13.0 0.00 0.24 0.01 60 1022.4
20260830181503 83 325 10.0 16.0 0.00 0.24 0.01 60 1023.2
20260830181403 83 328 9.0 16.0 0.00 0.24 0.01 59 1022.4
20260830180903 84 340 5.0 12.0 0.00 0.24 0.01 60 1022.4
20260830180002 83 317 3.0 10.0 0.00 0.24 0.01 61 1023.6
20260830174903 82 327 7.0 10.0 0.00 0.24 0.01 61 1022.9
20260830174506 82 16 4.0 12.0 0.00 0.24 0.01 62 1023.7
20260830174403 82 313 6.0 9.0 0.00 0.24 0.01 59 1022.9
20260830173903 82 292 7.0 13.0 0.00 0.24 0.01 60 1022.9
20260830173403 82 312 9.0 13.0 0.00 0.24 0.01 58 1022.9
20260830173003 82 32 8.0 14.0 0.00 0.24 0.01 60 1024.0
20260830172903 83 337 8.0 14.0 0.00 0.24 0.01 58 1023.0
20260830171903 82 248 7.0 10.0 0.00 0.24 0.01 60 1023.2
20260830171503 82 309 3.0 12.0 0.00 0.24 0.01 63 1024.2
20260830171403 82 287 5.0 9.0 0.00 0.24 0.01 62 1023.2
20260830170903 82 326 7.0 14.0 0.00 0.24 0.01 59 1023.1
20260830170403 82 321 6.0 8.0 0.00 0.24 0.01 60 1023.2
20260830170013 82 317 4.0 14.0 0.00 0.24 0.01 58 1024.1
20260830165903 82 264 7.0 14.0 0.00 0.24 0.01 56 1023.1
20260830165403 82 260 5.0 12.0 0.00 0.24 0.01 60 1023.1
20260830164903 82 220 5.0 12.0 0.00 0.24 0.01 61 1023.3
20260830164504 81 40 2.0 7.0 0.00 0.24 0.01 64 1024.2
20260830164403 82 310 4.0 7.0 0.00 0.24 0.01 61 1023.2
20260830163902 82 234 2.0 7.0 0.00 0.24 0.01 66 1023.4
20260830163403 81 265 3.0 8.0 0.00 0.24 0.01 64 1023.5
20260830163006 80 292 2.0 10.0 0.00 0.24 0.01 69 1024.1
20260830162903 81 317 4.0 9.0 0.00 0.24 0.01 66 1023.5
20260830162403 81 285 6.0 10.0 0.00 0.24 0.01 66 1023.5
20260830161903 81 186 5.0 12.0 0.00 0.24 0.01 64 1023.6
20260830161502 80 279 4.0 8.0 0.00 0.24 0.01 69 1024.3
20260830161403 81 301 6.0 8.0 0.00 0.24 0.01 68 1023.6
20260830160903 81 334 3.0 7.0 0.00 0.24 0.01 68 1023.6
20260830160403 81 291 6.0 8.0 0.00 0.24 0.01 69 1023.7
20260830160005 80 229 3.0 14.0 0.00 0.24 0.01 69 1024.5
20260830155903 80 295 2.0 10.0 0.00 0.24 0.01 71 1023.8
20260830155403 79 318 8.0 14.0 0.00 0.24 0.01 69 1023.7
20260830154504 79 302 6.0 16.0 0.00 0.24 0.01 71 1024.6
20260830154403 79 335 8.0 16.0 0.00 0.24 0.01 69 1023.7
20260830153903 79 326 9.0 13.0 0.00 0.24 0.01 69 1023.7
20260830153403 80 339 6.0 12.0 0.00 0.24 0.01 70 1023.6
20260830153003 79 323 4.0 11.0 0.00 0.24 0.01 72 1024.4
20260830152903 79 292 3.0 8.0 0.00 0.24 0.01 69 1023.7
20260830151903 80 347 3.0 6.0 0.00 0.24 0.01 72 1023.7
20260830151505 79 140 0.0 3.0 0.00 0.24 0.01 74 1024.4
20260830151403 79 140 0.0 0.0 0.00 0.24 0.01 72 1023.8
20260830150403 78 167 1.0 2.0 0.00 0.24 0.01 75 1023.8
20260830150004 78 167 0.0 7.0 0.00 0.24 0.01 77 1024.5
20260830145903 78 175 1.0 5.0 0.00 0.24 0.01 73 1023.6
20260830145403 78 142 1.0 7.0 0.00 0.24 0.01 73 1023.8